Regional Weather Roundup
Issued by NWS Wakefield, VA

Home | Current Version | Previous Version | Graphics & Text | Print | Product List | Glossary On
Versions: 1 2 3 4 5 6 7 8 9 10 11 12 13 14 15 16 17 18 19 20 21 22 23 24 25 26 27 28 29 30 31 32 33 34 35 36 37 38 39 40 41 42 43 44 45 46 47 48 49 50
000
ASUS41 KAKQ 311512
RWRAKQ

REGIONAL WEATHER ROUNDUP
NATIONAL WEATHER SERVICE WAKEFIELD VA
1100 AM EDT MON AUG 31 2015

Note: "fair" indicates few or no clouds below 12,000 feet with no
significant weather and/or obstructions to visibility. * = Denotes
station may not report precipitation (e.g., rain,snow,etc.),
thunder or fog.

VAZ042-051-052>054-056-311600-
NORTHERN VIRGINIA

CITY           SKY/WX    TMP DP  RH WIND       PRES   REMARKS
WASH NATIONAL  CLOUDY    81  70  69 S7        30.11R
DULLES         CLOUDY    79  67  66 S3        30.11S
FORT BELVOIR   CLOUDY    79  67  67 S5        30.11R
QUANTICO       CLOUDY    77  67  71 S5        30.12S
FREDERICKSBRG* CLOUDY    81  68  64 S3        30.11S
STAFFORD*      CLOUDY    76  67  75 CALM      30.15S
WARRENTON      CLOUDY    79  69  72 SW3       30.12S
CULPEPER*      CLOUDY    76  68  76 CALM      30.13S
MANASSAS*      SUNNY     79  70  73 CALM      30.12R
LEESBURG*      CLOUDY    77  72  83 SW6       30.13R
WINCHESTER     CLOUDY    82  63  51 CALM      30.13R
FRONT ROYAL*   PTSUNNY   77  64  65 S3        30.13R
LURAY*         FAIR      77  63  61 SW3       30.14S
$$

VAZ048-049-060>072-079>083-311600-
CENTRAL AND SOUTH CENTRAL VIRGINIA

CITY           SKY/WX    TMP DP  RH WIND       PRES   REMARKS
RICHMOND       LGT RAIN  78  66  66 S7        30.12S
CHESTERFIELD*  FAIR      73  59  60 S9        30.15R
PETERSBURG*    LGT RAIN  73  73 100 S5        30.15R
HANOVER        CLOUDY    77  66  68 VRB6      30.13S
TAPPAHANNOCK*  CLOUDY    78  66  66 CALM      30.13R
QUINTON*       FAIR      76  68  77 SW5       30.13R
CHARLOTTSVILLE CLOUDY    75  66  73 CALM      30.13S
GORDONSVILLE*  FAIR      75  68  79 S6        30.13R
ORANGE*        CLOUDY    77  70  78 CALM      30.13F
LOUISA*        CLOUDY    75  66  73 S3        30.13R
BUMPASS*       FAIR      75  68  78 SW5       30.14R
FARMVILLE*     CLOUDY    74  72  94 S7        30.13R
CREWE*         CLOUDY   N/A N/A N/A S5        30.15R
FORT PICKETT*  CLOUDY    71  68  93 CALM      30.16R
CHASE CITY*    CLOUDY    74  74  99 SE3       30.16R
CLARKSVILLE*   CLOUDY    70  68  94 E5        30.15S
SOUTH HILL*    CLOUDY    69  68  97 SE3       30.21S
LAWRENCEVILLE* CLOUDY    70  70 100 CALM      30.15F
EMPORIA*       RAIN      70  68  94 SE3       30.16F
$$

VAZ088>098-311600-
SOUTHEAST VIRGINIA

CITY           SKY/WX    TMP DP  RH WIND       PRES   REMARKS
NORFOLK        LGT RAIN  74  68  81 W5        30.14R
VIRGINIA BEACH LGT RAIN  78  68  71 W9        30.14R
NORFOLK NAVAL  LGT RAIN  75  70  84 SW5       30.16R
WEST POINT*    CLOUDY    79  66  66 SW5       30.15R
SALUDA*        FAIR      76  70  80 SW6       30.12R
NEWPORT NEWS   CLOUDY    78  69  73 SW12      30.14R
LANGLEY AFB    CLOUDY    77  69  76 S8        30.13R
FORT EUSTIS    CLOUDY    76  69  77 SW7       30.13R
WILLIAMSBURG*  CLOUDY    77  72  83 SW3       30.15R
HR EXEC AP*      N/A     72  70  94 W3        30.17R
FRANKLIN*      RAIN      71  69  95 SW5       30.17R
WAKEFIELD      LGT RAIN  74  69  85 SW3       30.15R
$$

VAZ020-022-025-037-045-311600-
WEST CENTRAL AND SOUTHWEST VIRGINIA

CITY           SKY/WX    TMP DP  RH WIND       PRES   REMARKS
STAUNTON*      CLOUDY    78  64  63 CALM      30.18R
WAYNESBORO*    PTSUNNY   79  63  57 SE5       30.17R
HOT SPRINGS VA CLOUDY    71  58  65 W7        30.26S
LYNCHBURG      CLOUDY    75  63  66 S6        30.17R
DANVILLE       CLOUDY    75  67  76 CALM      30.15S
SOUTH BOSTON*  CLOUDY    73  68  83 CALM      30.15S
MARTINSVILLE   PTSUNNY   77  66  68 CALM      30.18S
ROANOKE        MOSUNNY   78  62  57 SE5       30.17S
BLACKSBURG     MOSUNNY   76  61  58 NE6       30.23R
DUBLIN*        CLOUDY    76  64  65 CALM      30.21S
MARION*        CLOUDY    74  62  66 CALM      30.25R
HILLSVILLE*    CLOUDY    71  62  72 NW7       30.22R
RICHLANDS*     CLOUDY    71  30  21 CALM      30.24S
WISE*          MOSUNNY   73  59  60 N5        30.26R
ABINGDON*      SUNNY     75  61  61 CALM      30.22R
$$

MDZ021>025-VAZ099-100-311600-
SOUTHERN MARYLAND AND THE DELMARVA PENINSULA

CITY           SKY/WX    TMP DP  RH WIND       PRES   REMARKS
PATUXENT RIVER CLOUDY    80  66  62 SW7       30.10R
BAY BRIDGE APT   N/A     79  64  61 SW6       30.10R
LEONARDTOWN    NOT AVBL
DOVER          MOSUNNY   83  71  65 SW8       30.08R
GEORGETOWN     PTSUNNY   82  68  62 W9        30.10S
EASTON         SUNNY     82  68  61 SW6       30.13S
CAMBRIDGE      CLOUDY    82  64  54 SW5       30.10R
SALISBURY      CLOUDY    83  69  62 SW12      30.10S
OCEAN CITY     CLOUDY    82  69  64 SW10      30.10S
WALLOPS ISLAND CLOUDY    84  68  58 W9        30.12R
ACCOMACK*      CLOUDY    79  61  53 SW6       30.12S
$$

NCZ012>017-030>032-311600-
NORTH CENTRAL AND EASTERN NORTH CAROLINA

CITY           SKY/WX    TMP DP  RH WIND       PRES   REMARKS
ROANOKE RAPIDS LGT RAIN  70  68  94 CALM      30.15F
RALEIGH        CLOUDY    72  68  88 E6        30.13F
ELIZABETH CITY LGT RAIN  79  69  71 W6        30.15R
AHOSKIE*       HVY RAIN  69  67  96 NE3       30.16S
EDENTON*       LGT RAIN  73  69  88 W5        30.16R
CURRITUCK*     CLOUDY    80  65  61 W3        30.15R
KILL DEVIL HLS CLOUDY    84  67  57 CALM      30.13S
MANTEO         CLOUDY    79  69  70 NE6       30.14S
CAPE HATTERAS  CLOUDY    80  72  76 E5        30.13S
TARBORO*       RAIN      69  68  95 CALM      30.16R
GOLDSBORO      LGT RAIN  71  70  98 N3        30.12F FOG
WASHINGTON     LGT RAIN  71  69  95 N8        30.14S
GREENVILLE     LGT RAIN  70  70 100 NE6       30.15S
NEW BERN       RAIN      78  73  84 E3        30.13R
WILMINGTON     CLOUDY    77  74  90 NW7       30.11R
$$

VAZ048-311600-
ELSEWHERE

CITY           SKY/WX    TMP DP  RH WIND       PRES   REMARKS
HARRISBURG PA  PTSUNNY   80  68  66 CALM      30.08S
BALTIMORE      PTSUNNY   84  66  54 SW7       30.09R
ANNAPOLIS      CLOUDY    81  66  60 SW6       30.09R
ANDREWS AFB    CLOUDY    82  65  56 SW9       30.10S
PHILADELPHIA   PTSUNNY   83  68  60 SW10      30.07S
HENDERSON NC   CLOUDY    69  65  86 CALM      30.16R
GREENSBORO     CLOUDY    72  70  93 E5        30.15R
ROCKY MOUNT    HVY RAIN  70  69  97 E6        30.16R VSB 3/4
$$

VAZ100-311600-
MARINE

STATION/POSITION TIME  TEMP    WIND        PRES    WAVE   SWELL
                       AIR SEA DIR/SP/G            HT/PER HT/PER
                 (UTC) (F)     (DEG/KT/KT) (MB)    (FT/S) (FT/S)
15NM E FENWICK I 1450   78 78  220/ 14/ 16 1019.2R   2/ 9   2/ 9
CHESAPEAKE LGHT  1400   77     220/  9/ 10 1020.8F
64NM E OF VA BCH 1450   78 78  220/  4/  6 1019.9S   3/10   3/10
DIAMOND SHLS NC  1450   82 84  130/  6/  8 1020.2F   3/ 9   3/ 9
CAPE LOOKOUT NC  1500   79     100/ 13/ 14 1019.1F
$$



USA.gov is the U.S. government's official web portal to all federal, state and local government web resources and services.